Content
SEND FEEDBACK

Daily
Averages
Monthly
Summary
Costa Rica

ALAJUELA, COSTA RICA


Home > Central America > Costa Rica
Elevation: 3081 feet     Latitude: 10 00N     Longitude: 084 13W

WEATHER
 
SELECT A DAY
Number of Records: 173,856;   Date Range: 7/1/96 - 7/30/14
 
SHARE

PRINT THIS DATA

[ ← Previous Day ]
WEATHER ALMANAC - JANUARY 31, 2013
[ Next Day → ]
[ °C ]   °F
Weather ElementAverageHighLow
Temperature73.9 °F82.4 °F (12:00 pm)69 °F (3:00 am)
Dewpoint58 °F60.8 °F (12:00 am)53.6 °F (12:00 pm)
Humidity56.6 %73 % (12:00 am)28 % (12:00 pm)
Barometer29.95 in30.04 in (9:00 pm)29.77 in (3:00 am)
Wind Speed12.4 mph17.3 mph (10:00 am)
Wind Gust34.5 mph (11:00 am)
Weather ElementAverage
Visibility7.7 mi
Wind DirectionE (87 °)

Weather ElementTotal
Precipitation---
Cooling Degree Days10.7 (Base 65)
Growing Degree Days25.7 (Base 50)
Averaged from 30 records on January 31, 2013
WEATHER CONDITIONS BREAKOUT
WIND DIRECTION BREAKOUT
WEATHER BY HOUR - JANUARY 31, 2013
[ °C ]   °F
Local TimeTemperatureDewpointHumidityBarometerVisibilityWind DirectionWind SpeedGust SpeedPrecipitationEventsConditions
12:00 AM69.8 °F60.8 °F73 %30.00 in6.2 miENE (70°)8.1 mphPartly Cloudy
2:00 AM69.8 °F60.8 °F73 %29.96 in6.2 miENE (70°)8.1 mphPartly Cloudy
3:00 AM69.0 °F60.0 °F66 %29.77 in12.0 miENE (60°)9.2 mphScattered Clouds
3:00 AM69.8 °F60.8 °F73 %29.95 in6.2 miENE (60°)9.2 mphPartly Cloudy
4:00 AM69.8 °F60.8 °F73 %29.95 in6.2 miEast (90°)5.8 mphPartly Cloudy
5:00 AM69.8 °F60.8 °F73 %29.95 in6.2 miENE (70°)8.1 mphPartly Cloudy
6:00 AM69.8 °F59.0 °F68 %29.97 in6.2 miEast (90°)8.1 mphPartly Cloudy
6:00 AM70.0 °F60.0 °F62 %29.82 in12.0 miEast (90°)8.1 mphScattered Clouds
7:00 AM69.8 °F59.0 °F68 %29.99 in6.2 miEast (90°)11.5 mph23.0 mphPartly Cloudy
8:00 AM71.6 °F59.0 °F64 %30.01 in6.2 miEast (90°)13.8 mph25.3 mphPartly Cloudy
9:00 AM76.0 °F58.0 °F44 %29.85 in12.0 miEast (90°)15.0 mphScattered Clouds
9:00 AM77.0 °F59.0 °F54 %30.03 in6.2 miEast (90°)15.0 mph27.6 mphPartly Cloudy
10:00 AM78.8 °F55.4 °F44 %30.03 in6.2 miEast (80°)17.3 mph28.8 mphPartly Cloudy
11:00 AM80.6 °F55.4 °F42 %30.02 in6.2 miEast (80°)17.3 mph34.5 mphPartly Cloudy
12:00 PM82.4 °F53.6 °F37 %30.00 in6.2 miEast (80°)15.0 mph26.5 mphPartly Cloudy
12:00 PM82.0 °F54.0 °F28 %29.83 in12.0 miEast (80°)15.0 mphScattered Clouds
1:00 PM82.4 °F57.2 °F42 %29.98 in6.2 miEast (90°)15.0 mph26.5 mphPartly Cloudy
2:00 PM82.4 °F57.2 °F42 %29.95 in6.2 miEast (80°)17.3 mph29.9 mphPartly Cloudy
3:00 PM81.0 °F57.0 °F34 %29.77 in12.0 miEast (90°)12.7 mphScattered Clouds
3:00 PM80.6 °F57.2 °F45 %29.94 in6.2 miEast (90°)12.7 mph24.2 mphPartly Cloudy
4:00 PM78.8 °F59.0 °F51 %29.94 in6.2 miEast (100°)11.5 mph23.0 mphPartly Cloudy
5:00 PM75.2 °F57.2 °F53 %29.95 in6.2 miEast (100°)13.8 mph25.3 mphPartly Cloudy
6:00 PM71.6 °F59.0 °F64 %29.96 in6.2 miEast (90°)11.5 mph23.0 mphPartly Cloudy
6:00 PM71.0 °F58.0 °F55 %29.81 in12.0 miEast (90°)11.5 mphScattered Clouds
7:00 PM69.8 °F59.0 °F68 %29.99 in6.2 miESE (110°)15.0 mph29.9 mphPartly Cloudy
8:00 PM69.8 °F53.6 °F56 %30.02 in6.2 miEast (90°)11.5 mph23.0 mphPartly Cloudy
9:00 PM70.0 °F57.0 °F55 %29.90 in12.0 miEast (100°)13.8 mphScattered Clouds
9:00 PM69.8 °F57.2 °F64 %30.04 in6.2 miEast (100°)13.8 mphPartly Cloudy
10:00 PM69.8 °F57.2 °F64 %30.04 inEast (100°)15.0 mph26.5 mphClear
11:00 PM69.8 °F57.2 °F64 %30.04 inEast (100°)11.5 mphClear
Hourly data recorded from MROC, located miles away from Alajuela, Costa Rica







STORIES FROM OUR PARTNERS